Wetbulb
59.05 59.35 59.26 59.36 59.77 60.06 60.38 60.58 60.94 61.35 61.38 61.80 61.82 62.01 62.30 62.29 61.84 66.68 64.36 74.04 76.53 78.16 79.21 76.81 75.51 74.96 75.57 73.98 73.09 73.86 62.76 60.17 60.80 61.95 63.56 66.51 65.30 67.90 69.02 66.57 67.19 67.91 68.38 68.70 70.36
58.81 58.94 58.91 59.06 59.42 59.60 59.90 60.29 60.70 61.04 61.19 61.29 61.58 61.99 62.23 62.38 65.42 63.28 70.87 77.82 77.05 78.58 76.95 73.13 69.13 71.94 72.14 68.88 69.86 67.09 62.06 61.53 65.23 66.03 65.31 66.40 66.14 66.59 65.62 65.43 65.44 66.56 68.67 69.62 70.08
58.53 58.48 58.51 58.81 59.08 59.33 59.57 59.80 60.21 60.38 60.75 60.98 61.44 61.89 62.10 63.19 63.45 64.95 75.88 78.87 78.02 79.02 75.24 72.17 68.48 70.35 67.26 68.22 66.73 65.63 62.51 64.90 65.44 67.30 67.61 66.82 67.03 67.71 65.22 64.19 66.74 65.32 66.96 68.97 69.28
57.96 58.10 58.18 58.59 58.76 59.00 59.22 59.41 59.59 59.54 59.88 60.55 61.36 62.02 62.31 65.24 57.78 69.70 75.49 78.83 78.84 77.80 71.69 68.14 67.74 66.75 64.26 63.44 66.81 63.88 65.91 66.76 67.22 68.06 67.39 66.43 68.20 66.40 66.74 67.74 69.19 68.31 69.12 69.38 68.60
57.73 57.75 57.76 58.06 58.33 58.53 58.90 58.95 58.99 59.01 59.37 60.08 61.09 62.22 64.94 61.60 59.44 74.35 77.09 79.19 76.95 75.70 69.64 64.83 64.63 65.43 63.18 64.45 65.85 65.14 65.89 67.09 68.27 68.36 67.95 68.25 66.60 66.55 66.92 69.02 69.67 69.34 69.36 68.98 69.21
57.38 57.79 58.00 57.86 57.84 58.06 58.33 58.61 58.65 58.63 59.15 60.39 61.55 61.94 65.02 55.79 64.36 71.39 73.18 74.83 73.23 72.03 69.76 66.25 65.52 66.04 65.56 65.22 64.69 66.50 66.26 66.77 68.02 67.73 68.03 67.10 67.18 68.11 67.65 68.60 68.72 68.68 68.72 69.15 69.41
57.19 57.54 57.39 57.04 57.19 57.54 57.70 57.35 57.63 58.24 59.54 61.37 63.00 65.09 59.87 57.77 63.26 65.52 68.15 72.34 72.25 71.25 68.88 67.28 67.64 65.34 66.64 64.89 67.11 66.26 64.43 66.27 66.63 67.53 67.09 68.44 65.91 65.65 67.91 68.00 67.37 67.84 68.48 68.96 69.49
56.79 56.48 56.62 56.58 56.75 56.77 56.70 56.29 56.92 58.80 60.85 63.00 63.38 64.82 58.08 61.42 63.48 63.76 64.12 63.30 65.34 68.10 68.16 67.96 67.21 65.25 66.69 68.14 65.85 64.21 64.20 60.55 64.65 65.98 67.67 67.32 62.44 67.66 67.84 67.37 66.61 67.33 67.79 68.32 69.02
56.24 56.28 56.17 56.15 56.06 55.95 55.87 56.06 57.60 60.43 62.47 63.43 65.23 62.15 56.85 60.41 58.82 62.03 62.88 61.63 63.89 64.57 66.99 65.91 64.66 64.33 65.96 63.60 62.32 62.87 53.33 58.60 60.54 64.95 64.90 65.37 63.30 68.29 68.53 67.02 66.49 66.92 67.40 67.78 68.65
55.94 55.91 55.68 55.80 55.54 55.19 55.24 55.93 62.39 60.42 63.39 66.08 63.06 57.67 58.58 56.70 59.97 61.13 63.01 62.35 61.00 62.24 61.70 61.63 62.21 61.63 63.02 61.75 50.89 56.41 58.14 58.30 57.62 61.36 62.61 62.93 63.43 67.73 68.81 66.93 66.59 66.80 67.30 67.68 68.30
55.99 56.14 55.62 55.49 55.35 54.74 57.74 64.26 61.65 61.07 61.84 58.82 58.13 55.94 56.43 59.64 61.68 60.00 62.02 60.30 61.00 60.43 57.19 61.22 59.23 57.73 59.88 61.96 60.81 60.58 58.95 57.71 59.59 61.10 60.95 60.73 61.52 65.09 68.89 68.19 66.58 66.97 67.23 67.46 68.01
55.66 55.53 55.34 55.31 54.90 54.49 57.23 61.35 60.04 60.93 56.96 58.83 57.91 57.98 59.63 59.99 56.10 58.47 61.71 56.56 57.05 55.68 58.77 59.12 57.10 60.26 61.51 61.65 60.94 59.88 58.71 58.34 59.85 60.92 60.71 61.27 60.22 63.42 67.83 68.48 68.42 67.48 67.56 68.15 68.69
55.98 55.20 55.08 54.57 54.21 58.20 62.82 61.41 63.87 62.67 58.08 56.56 57.67 56.76 57.50 58.51 55.63 57.15 59.53 57.49 55.44 54.72 56.16 56.41 58.46 60.29 60.10 59.53 58.71 59.50 58.46 58.00 57.94 60.09 60.71 60.31 58.97 61.62 65.14 68.61 69.27 69.31 69.30 69.43 69.51
55.38 55.13 54.64 53.54 55.76 64.16 62.17 63.67 64.16 63.08 55.16 53.44 55.59 57.48 58.95 57.68 54.43 59.27 60.22 58.01 55.50 53.42 55.09 56.17 59.16 58.45 58.48 57.70 58.64 56.60 60.13 59.13 57.88 57.65 54.27 59.61 53.13 60.09 63.36 65.73 67.94 68.85 69.19 69.37 70.15
55.33 55.00 53.95 52.25 63.23 62.65 62.98 64.32 63.79 62.08 47.60 54.49 55.14 60.63 58.23 55.40 55.98 56.18 60.22 57.44 53.75 53.77 54.45 53.56 54.85 56.10 55.61 56.94 58.97 57.05 60.34 58.78 58.43 57.15 56.57 56.65 54.51 57.63 63.45 62.87 65.77 67.99 69.19 69.90 70.70
54.84 53.75 53.44 59.62 63.73 63.02 64.09 64.19 62.01 52.63 46.48 52.93 55.39 54.56 54.77 55.16 54.80 56.43 56.25 58.56 57.68 54.42 54.54 54.12 56.70 55.56 55.43 57.23 58.13 58.97 57.93 58.52 58.11 56.78 52.08 55.52 54.85 54.59 58.24 58.97 62.97 66.91 68.77 69.95 70.53
53.36 52.40 55.44 62.04 62.52 64.64 64.45 61.50 53.92 49.90 54.41 51.73 52.59 54.01 53.81 52.47 52.77 54.04 53.20 52.65 51.70 49.45 49.96 52.68 52.99 55.22 55.81 53.41 56.59 55.92 53.87 50.05 50.20 50.46 49.92 56.08 54.72 56.41 59.79 61.22 61.33 62.08 64.70 69.23 70.78
51.78 51.19 60.46 63.81 65.76 65.00 63.02 57.86 50.05 51.38 52.34 54.74 53.81 53.79 52.47 54.23 53.63 52.63 52.80 51.19 54.10 53.03 50.96 49.61 48.22 53.16 55.44 53.38 52.09 53.31 52.93 49.47 46.58 47.92 49.72 55.50 51.98 57.03 61.68 62.29 62.29 62.62 64.44 65.30 69.53
50.96 64.26 65.61 66.85 66.14 64.77 59.00 52.57 52.58 53.54 54.45 53.13 53.85 52.52 52.06 52.98 54.10 53.03 53.07 53.53 55.23 56.53 50.19 49.28 49.44 54.92 54.42 55.27 54.77 52.00 50.18 54.45 50.23 51.25 48.97 51.71 55.34 60.49 60.93 60.76 61.44 61.70 62.20 64.55 68.15
64.65 64.38 64.32 66.31 66.63 63.23 58.09 50.05 54.37 56.27 56.20 55.09 51.83 53.33 51.22 52.06 52.33 53.22 53.69 55.85 55.55 57.31 57.78 53.66 48.82 53.62 54.28 55.10 54.71 53.12 54.96 49.70 50.25 45.53 45.04 49.32 51.86 53.50 58.41 59.47 60.53 60.87 60.86 65.33 68.47
63.91 61.82 64.36 66.46 65.90 61.72 56.33 55.38 55.60 57.55 57.96 55.46 52.53 52.12 52.61 52.42 53.06 52.76 53.67 55.99 56.82 56.72 57.65 55.72 53.32 52.42 53.51 52.26 51.08 51.76 50.45 51.45 51.89 50.81 47.46 46.57 49.64 57.50 59.53 60.68 60.37 61.54 62.40 64.01 68.32
64.41 59.82 65.66 66.05 59.40 59.50 56.90 56.73 53.60 56.79 57.18 55.64 55.36 54.51 53.69 53.78 53.35 53.12 53.50 55.82 57.59 57.23 54.77 57.35 54.01 50.61 52.66 56.37 55.31 53.99 52.31 52.38 47.73 48.19 49.77 49.16 49.54 58.74 59.26 59.53 60.20 60.66 62.29 64.04 68.00
62.59 60.82 66.34 64.09 56.65 56.35 56.55 56.08 57.01 56.66 56.34 56.07 55.15 55.57 56.12 54.09 52.07 53.77 54.55 57.60 57.73 56.80 56.55 57.21 53.14 49.18 51.16 53.83 55.69 52.59 52.89 52.75 52.53 51.94 49.58 47.28 49.40 58.29 58.75 59.24 60.57 60.11 61.82 65.69 67.91
61.76 58.28 59.45 62.91 60.11 56.63 55.55 55.43 55.14 57.35 56.53 57.48 57.12 57.49 56.00 55.26 56.33 53.61 54.38 56.40 57.85 57.50 60.73 59.27 52.92 50.94 48.22 51.05 53.57 53.58 54.22 54.79 53.20 49.07 49.06 49.39 51.21 54.49 56.06 56.86 59.16 61.58 65.60 67.27 67.15
57.65 54.55 54.11 55.35 56.75 56.63 55.72 55.39 53.36 53.98 56.82 57.23 56.50 55.26 54.92 53.53 54.12 53.88 55.59 56.10 56.74 60.31 57.61 56.86 52.30 53.61 53.66 54.03 54.34 53.42 52.94 53.57 52.96 53.49 50.72 51.73 51.76 54.54 56.23 58.19 62.82 64.95 66.33 67.49 67.91
56.18 54.95 57.55 54.48 52.73 53.28 50.69 54.36 53.08 53.83 54.49 54.58 53.90 55.05 54.54 53.24 54.23 53.05 54.85 54.38 53.44 55.67 56.50 57.21 52.68 53.92 51.96 53.37 53.21 52.20 53.53 53.22 53.60 54.25 54.21 53.65 52.44 56.94 57.77 60.21 62.00 64.71 66.63 67.61 68.59
58.49 60.03 55.95 50.18 53.28 52.49 54.69 53.63 52.49 53.16 54.52 55.37 54.86 53.87 52.75 53.32 54.92 55.48 54.79 54.40 54.07 52.98 52.19 51.46 49.82 50.43 49.26 53.00 52.66 50.01 52.89 53.29 54.00 55.13 55.01 52.24 54.89 59.47 60.73 61.97 63.52 66.05 67.93 68.73 69.45
MSLP
1015.43 1015.03 1014.54 1014.22 1013.86 1013.46 1013.00 1012.43 1012.00 1011.49 1010.98 1010.47 1010.11 1009.62 1009.06 1008.33 1007.10 1006.34 1004.02 1003.96 1004.13 1004.68 1004.85 1003.56 1003.10 1002.42 1002.02 1000.06 999.63 998.94 998.02 998.58 999.36 1000.50 1002.06 1002.80 1003.03 1003.47 1003.83 1004.37 1004.64 1005.01 1005.02 1006.76 1008.30
1015.45 1015.06 1014.53 1014.12 1013.73 1013.36 1012.97 1012.47 1011.97 1011.37 1010.85 1010.28 1009.87 1009.41 1008.87 1008.33 1006.34 1004.04 1004.27 1003.98 1004.30 1004.46 1004.06 1002.30 1001.06 1001.33 999.78 998.65 997.93 997.92 998.20 999.17 999.66 1000.23 1001.65 1002.31 1002.60 1003.31 1003.73 1004.05 1004.62 1004.80 1005.44 1006.99 1008.15
1015.45 1015.03 1014.49 1014.06 1013.59 1013.23 1012.81 1012.33 1011.89 1011.35 1010.76 1010.12 1009.58 1009.13 1008.66 1008.24 1005.22 1002.42 1003.95 1003.99 1004.23 1004.04 1002.16 1001.69 1001.01 1000.21 998.20 997.42 997.41 997.47 998.33 999.22 1000.04 1000.46 1001.37 1002.11 1002.67 1003.13 1003.00 1003.36 1004.04 1004.59 1005.86 1007.06 1007.86
1015.42 1014.98 1014.44 1013.93 1013.43 1013.00 1012.65 1012.19 1011.69 1011.19 1010.67 1010.05 1009.37 1008.84 1008.29 1006.61 1003.47 1003.06 1003.85 1004.09 1004.14 1003.81 1002.40 1001.20 1000.19 998.88 997.54 997.21 997.29 997.36 998.64 999.24 1000.13 1000.80 1001.32 1001.62 1002.19 1002.31 1002.46 1002.83 1003.31 1004.62 1005.85 1006.84 1007.51
1015.28 1014.79 1014.31 1013.83 1013.27 1012.78 1012.38 1011.99 1011.57 1011.06 1010.46 1009.85 1009.28 1008.85 1007.08 1004.79 1002.40 1003.22 1003.94 1004.33 1004.35 1003.84 1001.96 1000.63 999.48 997.89 997.20 996.90 997.45 997.40 998.33 999.22 1000.15 1000.57 1000.89 1001.66 1001.91 1002.08 1002.61 1003.32 1003.40 1004.53 1005.73 1006.53 1006.96
1015.31 1014.72 1014.10 1013.59 1013.14 1012.62 1012.13 1011.76 1011.29 1010.88 1010.19 1009.63 1009.12 1008.92 1007.01 1003.30 1002.18 1002.47 1003.11 1003.84 1002.86 1002.60 1001.17 1000.34 999.06 998.56 997.42 996.98 998.90 998.08 998.31 998.89 999.70 1000.32 1000.76 1000.95 1001.57 1002.08 1002.71 1003.09 1003.33 1004.40 1005.36 1005.99 1006.43
1015.34 1014.70 1014.10 1013.55 1012.92 1012.41 1011.95 1011.54 1011.03 1010.32 1009.84 1009.31 1008.95 1008.25 1004.99 1002.21 1002.02 1002.26 1002.40 1002.18 1002.08 1001.36 1000.58 999.56 999.25 998.67 997.42 997.08 997.63 997.65 997.85 997.94 998.72 999.71 1000.02 999.74 1000.19 1001.29 1002.51 1002.97 1003.47 1004.16 1004.84 1005.38 1005.89
1015.20 1014.62 1013.93 1013.32 1012.75 1012.13 1011.59 1011.09 1010.55 1009.87 1009.41 1008.84 1008.60 1007.27 1003.35 1002.00 1001.96 1001.99 1001.84 1001.53 1001.44 1001.06 1000.77 999.93 999.52 998.90 997.63 997.62 997.55 997.72 997.93 996.48 998.04 999.21 999.84 999.95 1000.10 1001.28 1002.36 1002.77 1003.23 1003.94 1004.50 1004.99 1005.46
1015.01 1014.39 1013.78 1013.17 1012.57 1011.92 1011.14 1010.67 1009.92 1009.43 1009.07 1008.59 1007.83 1005.57 1002.08 1002.62 1001.91 1001.23 1001.24 1000.82 1000.50 1000.69 1000.52 1000.34 999.87 998.50 997.48 997.07 996.74 997.43 999.41 997.60 997.47 998.59 999.06 999.66 999.26 1000.94 1001.94 1002.33 1002.82 1003.45 1003.94 1004.53 1005.07
1014.61 1014.09 1013.53 1012.93 1012.34 1011.76 1010.85 1009.95 1009.02 1008.98 1008.57 1007.31 1005.97 1004.48 1001.92 1000.93 1001.12 1001.23 1001.15 1001.16 1000.40 999.99 1000.09 1000.05 999.25 998.15 997.15 996.14 998.45 997.97 996.54 996.85 997.27 997.79 998.34 998.64 998.81 999.97 1001.27 1001.56 1002.07 1002.68 1003.21 1003.90 1004.34
1014.32 1013.70 1013.14 1012.59 1012.05 1011.55 1010.40 1008.11 1008.28 1007.32 1005.63 1003.31 1002.69 1001.62 1001.59 1001.52 1001.52 1001.05 1000.48 1000.63 1000.43 999.67 999.13 998.90 998.14 997.11 996.28 995.87 997.75 996.99 996.49 996.78 997.00 997.67 997.88 997.47 997.55 998.07 999.74 1000.60 1001.08 1001.73 1002.39 1002.98 1003.52
1014.07 1013.40 1012.79 1012.23 1011.64 1011.21 1010.84 1006.70 1006.52 1006.33 1003.94 1002.89 1002.73 1002.45 1002.01 1001.86 1000.93 1000.29 1000.55 1000.23 999.77 999.13 998.79 998.15 997.18 996.87 996.43 996.07 996.17 996.84 996.76 996.51 996.62 997.17 997.42 996.73 996.32 996.60 997.92 999.32 999.89 1000.68 1001.48 1002.00 1002.63
1013.71 1013.06 1012.47 1011.91 1011.31 1010.41 1007.42 1006.76 1006.47 1005.91 1003.89 1002.08 1001.74 1001.37 1001.34 1001.71 1000.28 999.12 1000.13 999.64 998.94 998.77 998.12 997.39 996.55 996.84 996.53 996.18 996.63 996.66 996.34 996.13 996.36 996.75 996.45 995.82 995.20 995.51 996.24 997.88 998.97 999.60 1000.39 1001.09 1001.67
1013.46 1012.77 1012.22 1011.65 1011.33 1007.56 1006.40 1006.59 1006.15 1005.94 1002.60 1001.29 1000.94 1001.11 1001.24 1001.02 1000.17 999.73 999.88 999.25 998.89 998.27 997.81 997.18 996.97 996.47 996.66 996.61 996.78 995.97 996.03 996.19 996.80 996.74 995.42 995.46 994.75 994.26 996.69 996.79 997.74 998.43 999.11 999.93 1000.70
1013.10 1012.45 1011.98 1011.93 1009.34 1006.38 1006.56 1006.27 1006.08 1005.43 1001.15 1000.80 1000.40 1001.01 1000.69 1000.32 999.64 999.85 1000.10 999.71 998.68 998.25 998.10 997.02 997.09 996.70 996.83 996.77 996.78 996.43 996.26 996.56 997.02 996.78 996.11 995.08 994.57 994.25 995.10 996.10 996.24 997.23 997.77 998.62 999.62
1012.73 1012.13 1011.65 1010.83 1008.60 1006.73 1006.36 1006.05 1005.72 1003.73 1000.61 1000.08 1000.13 999.86 999.75 999.73 999.31 999.63 999.97 999.98 999.07 998.32 998.07 997.61 997.21 997.37 997.22 996.93 996.89 997.04 996.77 996.75 997.16 996.73 995.73 995.00 994.26 993.46 994.57 995.09 994.61 994.93 996.38 997.36 998.30
1012.42 1011.85 1011.51 1009.06 1006.59 1006.55 1006.31 1005.29 1003.31 1000.80 1001.07 1000.28 999.59 999.30 998.68 998.84 999.05 998.94 999.15 999.20 998.73 998.54 997.82 997.63 997.25 997.93 997.81 997.17 996.97 997.02 996.78 996.10 995.84 995.34 994.46 994.05 993.44 992.75 992.76 993.82 993.41 993.88 994.69 995.93 997.10
1012.10 1011.60 1009.63 1008.19 1007.03 1006.55 1005.66 1003.82 1001.64 1001.53 1000.46 1000.71 1000.00 999.56 998.79 998.75 998.64 998.75 998.42 998.34 998.36 998.04 997.39 996.26 995.99 996.52 996.89 997.18 996.76 996.12 996.16 995.41 994.88 994.39 993.63 992.90 992.12 991.85 992.52 992.81 993.15 993.32 994.19 994.95 995.92
1011.68 1009.60 1007.22 1006.39 1006.52 1006.55 1004.93 1001.97 1001.52 1001.33 1001.34 1000.41 999.74 998.90 999.10 999.35 998.85 998.47 998.35 998.03 998.76 999.01 998.34 997.16 996.41 996.24 996.77 996.98 997.00 996.40 995.80 995.45 994.90 994.34 993.55 992.61 991.53 992.17 992.11 992.67 993.06 992.96 993.41 994.35 995.32
1010.40 1006.87 1005.78 1005.84 1005.76 1005.51 1003.73 1002.39 1002.50 1002.47 1001.99 1001.12 999.84 999.95 999.05 999.31 999.16 998.62 999.21 1000.17 999.87 1000.06 999.74 998.56 997.65 997.10 996.77 997.15 997.05 996.60 996.13 995.21 995.13 994.68 993.78 992.85 991.94 991.24 991.57 992.11 992.67 992.73 993.03 993.98 995.03
1009.95 1005.49 1005.29 1005.02 1004.91 1004.08 1002.19 1002.75 1002.82 1002.76 1002.62 1001.63 1000.91 1000.46 1000.29 1000.13 999.85 999.39 999.62 1000.88 1001.11 1000.50 1000.17 999.42 998.53 997.47 996.98 996.56 996.31 996.18 996.23 995.78 995.30 994.26 993.45 992.82 991.99 991.20 991.00 991.60 992.58 992.71 993.21 993.93 994.81
1007.81 1004.55 1005.03 1004.75 1003.71 1002.86 1002.47 1003.22 1003.92 1002.79 1002.86 1002.28 1002.19 1001.64 1001.35 1001.32 1000.61 1000.38 1000.44 1001.23 1002.25 1001.70 1000.80 1000.24 999.74 997.75 996.64 995.97 995.91 995.78 995.21 995.17 995.10 994.99 994.53 993.61 992.02 991.63 991.94 992.11 992.48 993.36 993.98 994.41 994.58
1007.47 1005.46 1004.84 1004.26 1002.63 1002.67 1003.82 1003.69 1003.62 1003.10 1003.08 1002.74 1002.48 1002.67 1002.47 1002.05 1002.06 1001.72 1001.70 1002.23 1002.84 1002.41 1002.08 1001.74 1000.34 998.51 996.97 995.93 995.70 996.29 996.17 995.84 995.27 994.61 993.78 993.24 992.39 992.01 992.15 992.32 992.76 993.45 994.18 994.76 995.24
1008.39 1005.20 1004.58 1004.48 1004.35 1003.67 1003.73 1003.73 1003.60 1004.34 1003.91 1003.79 1003.41 1003.42 1002.99 1002.51 1002.44 1002.36 1002.08 1002.12 1003.00 1003.14 1003.57 1003.53 1001.38 1000.00 998.59 997.31 998.68 997.83 996.48 996.27 995.76 994.86 994.11 993.30 992.86 992.66 992.75 992.96 993.31 993.85 994.36 995.25 995.42
1008.91 1007.01 1006.92 1004.61 1004.58 1004.65 1004.81 1004.74 1004.26 1004.00 1004.49 1004.54 1003.95 1003.99 1003.83 1003.44 1002.79 1002.47 1002.31 1002.41 1002.68 1003.29 1003.24 1002.81 1001.29 1000.66 999.98 999.17 998.46 997.83 997.16 996.69 996.16 995.66 994.89 994.16 993.48 993.21 993.08 993.26 994.04 994.97 995.43 995.60 995.69
1010.19 1009.32 1007.86 1006.62 1006.35 1005.84 1005.71 1004.92 1005.08 1004.89 1005.34 1004.38 1004.90 1004.50 1004.95 1004.57 1004.17 1003.66 1003.41 1003.19 1002.98 1002.86 1002.49 1002.20 1001.51 1001.33 1000.67 999.97 999.20 998.19 997.45 996.63 996.09 995.55 994.88 994.68 994.29 994.35 993.97 994.20 994.88 995.46 995.92 996.24 996.17
1011.91 1010.84 1009.91 1007.81 1006.38 1006.04 1005.46 1005.93 1006.15 1006.65 1006.06 1005.94 1005.87 1005.89 1005.47 1005.18 1005.55 1005.10 1004.64 1004.01 1003.51 1003.09 1002.69 1002.49 1002.05 1001.51 1000.32 999.84 999.11 998.01 997.09 996.34 995.95 995.40 994.56 994.11 994.26 994.37 994.85 994.99 995.38 996.06 996.79 997.07 996.89
Wind_Speed
17 18 18 18 18 17 18 18 18 18 18 18 17 17 16 18 22 8 8 10 6 20 10 11 10 8 9 13 7 11 3 10 15 14 11 8 9 5 5 10 7 4 13 22 25
18 18 18 19 18 18 18 18 18 19 19 19 18 17 17 16 13 15 4 10 24 19 14 11 6 8 14 4 5 8 10 12 12 13 12 9 8 9 8 10 10 8 22 21 23
18 19 19 19 19 19 18 18 18 19 19 20 20 18 17 16 12 3 7 14 17 19 13 10 8 11 13 7 3 15 10 12 8 13 9 8 10 8 11 9 12 17 23 22 22
19 19 19 20 20 20 19 19 19 19 20 20 20 19 19 9 7 9 4 12 17 16 13 10 9 18 10 6 3 15 7 11 8 8 8 5 8 6 1 8 16 16 22 22 20
20 20 20 20 21 21 20 19 19 19 20 20 19 17 12 11 2 8 10 12 16 15 14 11 14 14 8 3 3 14 8 10 9 8 8 5 3 7 5 6 9 17 21 21 20
20 20 20 21 21 21 20 19 19 19 20 19 17 15 10 15 6 10 8 13 14 15 15 12 12 10 14 6 20 7 3 8 9 5 7 7 8 9 8 7 14 19 22 20 19
19 20 20 21 22 21 21 20 20 20 18 16 13 8 11 10 2 7 8 11 14 13 15 12 8 13 9 4 1 7 11 14 9 7 4 10 13 5 11 10 15 19 20 19 18
20 20 21 22 22 22 22 21 21 19 15 14 8 11 10 6 2 8 9 10 12 12 15 14 11 14 14 3 9 13 10 4 13 6 6 13 13 11 12 14 16 19 18 17 18
20 20 21 21 21 22 22 22 21 16 10 7 8 10 12 5 11 10 9 12 14 13 12 10 13 17 8 16 17 11 13 4 9 7 3 4 4 13 13 14 15 17 18 16 17
21 20 20 20 20 19 22 22 5 8 8 9 8 8 10 8 3 4 7 8 10 13 13 14 14 17 15 17 8 21 2 6 3 7 5 6 7 15 14 15 15 17 17 17 17
21 19 20 19 18 17 17 7 8 9 13 10 2 11 2 3 9 11 10 13 15 14 17 19 17 17 19 13 11 11 7 5 2 4 7 4 5 12 18 17 17 16 16 17 18
21 19 19 18 18 16 10 6 8 7 9 5 6 8 9 5 7 10 8 13 18 18 19 20 20 20 18 14 9 6 11 10 2 5 8 12 10 9 20 17 17 18 17 17 18
19 19 17 17 18 9 5 7 7 7 10 8 3 4 1 8 9 11 13 16 15 19 20 22 20 19 22 10 13 15 16 13 8 11 16 15 14 12 16 18 17 17 18 18 18
20 18 16 18 7 1 2 4 8 4 9 11 10 6 9 6 10 4 8 13 15 17 20 22 17 25 12 15 17 19 15 9 6 13 13 6 11 13 7 16 18 17 19 19 19
20 17 14 7 11 4 7 7 8 6 7 4 7 5 3 11 6 15 8 11 16 16 12 15 19 22 14 19 18 18 17 7 12 15 17 18 10 10 14 9 16 16 18 20 21
19 17 12 6 7 5 7 7 7 10 4 6 3 4 11 11 7 7 11 12 5 9 8 18 3 8 16 20 22 21 20 12 16 16 15 18 17 13 9 19 12 19 17 18 21
18 14 8 7 5 8 7 8 9 5 3 4 2 5 1 8 7 9 15 16 12 12 15 16 14 14 14 14 13 13 18 15 17 16 14 18 17 16 3 6 5 8 10 19 20
17 10 9 7 7 8 8 11 4 4 9 5 4 6 2 3 6 7 10 15 15 15 15 12 18 23 18 16 18 17 17 15 21 17 16 20 19 6 8 13 4 5 8 2 18
17 8 8 2 3 6 9 8 7 8 6 6 8 9 8 4 6 7 1 11 10 12 13 15 15 9 4 10 15 19 19 17 21 20 17 18 13 8 4 8 13 10 2 8 12
7 7 4 4 6 7 10 6 5 3 7 7 6 9 2 5 8 7 3 5 2 3 8 13 10 14 11 13 16 17 17 15 12 20 19 16 18 11 10 3 5 8 6 8 9
7 6 6 6 6 9 5 5 3 5 7 9 4 1 3 4 10 3 7 8 7 9 7 11 12 11 2 12 14 12 16 18 20 14 13 14 14 17 17 9 9 11 8 2 11
8 4 3 7 9 4 5 4 3 1 3 1 6 7 9 3 6 4 5 9 7 11 13 10 11 13 14 11 9 12 16 16 14 19 15 16 15 6 3 3 5 5 7 7 7
6 4 2 8 6 4 4 6 4 1 2 2 1 4 4 6 6 6 1 7 5 11 10 13 9 14 10 17 16 10 16 17 20 19 19 16 12 10 8 8 8 7 7 5 5
7 4 5 2 4 9 1 1 5 3 2 6 7 6 6 9 5 7 6 2 1 11 7 5 14 17 16 19 5 22 11 12 17 13 15 17 18 14 15 15 10 9 8 8 8
2 6 6 2 5 6 4 3 5 4 3 4 4 6 8 10 11 9 9 7 6 7 7 14 16 15 18 21 22 19 19 17 17 17 18 19 21 17 15 8 11 7 8 9 9
7 7 3 5 3 7 6 4 7 2 4 6 5 6 8 11 12 14 15 12 10 10 10 12 13 15 17 18 20 24 25 22 21 21 18 17 16 19 13 4 6 8 9 11 12
6 1 6 3 5 7 4 5 5 4 7 7 8 8 11 9 12 14 16 18 18 16 15 15 13 14 16 17 15 17 21 22 22 23 24 15 13 3 7 11 9 8 6 8 9
Wind_Direction
344 340 338 337 335 334 332 332 330 327 325 322 322 321 318 314 303 216 248 83 173 170 202 180 208 203 222 252 235 254 26 55 46 78 115 140 122 148 53 127 159 177 128 153 147
341 337 336 334 332 332 330 329 327 324 323 320 319 321 317 322 283 255 102 135 154 171 205 215 199 189 224 183 260 203 62 52 57 112 118 133 127 124 153 147 133 184 126 142 155
338 335 334 331 329 328 327 326 324 322 320 318 316 318 315 314 266 174 146 149 176 188 243 265 283 242 241 246 354 48 74 84 55 81 119 114 116 149 150 165 150 139 146 156 165
336 333 332 329 327 325 324 323 322 320 318 315 313 317 312 259 245 77 146 171 184 212 258 250 251 245 253 155 185 101 58 78 101 109 117 153 129 155 306 65 140 157 157 167 174
334 331 329 326 324 322 321 321 318 316 313 309 309 318 306 227 245 105 132 159 189 223 251 257 270 278 286 131 146 107 101 95 98 145 130 135 149 95 110 153 153 151 163 174 181
332 329 326 324 323 322 321 319 315 312 307 302 303 308 249 255 88 137 138 168 209 220 252 244 283 340 300 332 123 91 103 104 151 127 129 169 144 215 125 192 147 159 171 179 185
330 327 325 323 322 320 317 315 312 308 302 295 291 275 266 269 48 153 185 197 219 231 254 256 296 292 314 162 123 151 171 168 140 149 149 241 147 184 138 169 161 169 176 181 186
330 327 324 322 320 317 314 311 307 301 293 285 263 251 269 72 293 210 229 224 236 239 260 296 293 284 277 118 207 219 243 163 111 143 135 263 151 129 159 170 172 175 180 183 187
329 326 323 320 318 316 310 306 298 287 272 259 232 235 253 135 213 212 229 238 206 222 242 273 263 267 239 238 221 219 209 43 107 142 172 233 72 137 171 177 178 184 183 188 189
328 325 321 319 317 313 308 292 305 278 223 230 268 249 227 219 101 255 238 240 259 222 218 232 238 246 245 253 108 261 17 84 32 105 191 221 228 152 186 188 189 189 186 190 193
327 322 320 316 312 311 315 222 206 194 220 283 69 260 149 303 241 217 207 209 232 244 224 212 236 241 252 253 151 268 356 311 84 61 286 296 272 180 177 200 192 196 194 190 196
325 321 318 312 308 307 279 281 34 347 286 196 253 265 276 292 258 216 192 223 212 230 222 241 222 250 251 273 296 257 268 267 191 153 277 279 280 182 170 199 203 196 195 197 189
324 322 315 311 313 277 297 39 335 310 254 139 140 236 176 221 250 194 195 214 222 227 238 233 240 226 254 264 254 256 265 279 318 319 269 257 274 176 171 178 200 199 197 200 196
326 319 315 314 288 48 193 354 321 304 259 135 180 121 191 238 232 266 240 248 237 243 234 248 243 262 264 255 266 263 264 338 304 269 285 300 301 222 149 180 189 200 201 198 198
325 318 310 288 320 244 16 316 321 243 222 102 113 78 180 228 85 185 215 236 260 221 264 235 238 251 242 261 254 265 289 320 297 282 279 270 254 133 194 184 187 198 203 201 192
326 320 313 206 230 354 308 305 248 234 101 120 170 190 189 202 197 122 201 232 303 274 229 261 355 282 267 257 251 266 271 266 257 258 259 266 274 271 128 193 207 173 188 206 201
326 318 278 299 2 336 303 249 238 294 158 100 76 207 337 164 162 208 196 201 216 217 231 221 225 223 253 266 252 247 249 249 242 234 244 251 245 255 182 183 325 94 157 183 203
325 310 204 285 290 304 261 250 292 336 45 147 231 208 324 317 157 201 187 213 220 288 291 252 217 211 210 237 263 226 244 254 254 258 261 251 245 217 250 273 330 261 154 243 187
315 209 240 117 289 277 267 266 38 25 340 330 215 231 147 155 291 196 345 32 37 322 282 279 251 237 266 275 234 250 258 265 275 274 272 281 283 262 261 285 267 257 33 160 198
283 259 77 301 257 259 253 25 98 351 293 248 308 304 353 86 249 246 136 28 353 356 306 287 298 293 262 215 250 268 281 262 227 261 272 273 268 264 251 144 291 270 76 139 201
248 241 74 295 251 245 283 61 101 92 318 322 337 203 347 349 314 294 72 83 5 346 304 305 285 273 185 253 255 205 236 251 275 282 267 253 254 261 243 190 249 279 109 188 188
281 264 68 287 258 311 91 0 312 80 184 293 286 338 323 339 324 319 357 42 6 322 317 350 309 297 288 285 233 291 282 230 235 246 254 283 289 255 333 281 187 358 317 307 214
290 7 149 286 283 126 135 134 319 303 320 263 311 293 346 313 289 243 181 99 317 319 3 345 290 298 266 239 202 227 250 263 277 281 273 272 268 258 297 285 245 281 316 332 261
284 240 140 248 331 311 244 148 179 172 289 312 327 278 277 262 200 283 262 189 234 294 96 284 267 275 289 315 201 300 301 286 279 277 277 270 275 271 282 276 277 315 22 330 288
335 46 6 351 98 341 297 12 272 239 200 260 249 276 330 303 293 281 280 304 300 150 247 246 275 288 292 296 299 290 288 284 278 281 284 298 300 304 303 351 18 347 306 318 288
337 332 326 310 215 264 141 197 299 308 276 274 262 333 312 299 308 310 309 292 294 283 262 275 285 282 268 272 273 281 280 278 273 275 275 279 281 282 297 353 321 324 324 313 297
6 287 283 137 281 267 21 16 341 340 257 295 321 304 288 334 328 304 295 289 283 278 277 280 283 280 275 288 290 274 256 257 269 274 274 268 280 9 316 321 328 314 340 315 316